Year,Month,Day,Hour,Minute,Value (Times are PST for barometer in hPa)
2020,11,17,00,00,998.42
2020,11,17,00,01,998.32
2020,11,17,00,02,998.34
2020,11,17,00,03,998.31
2020,11,17,00,04,998.27
2020,11,17,00,05,998.34
2020,11,17,00,06,998.31
2020,11,17,00,07,998.27
2020,11,17,00,08,998.21
2020,11,17,00,09,998.14
2020,11,17,00,10,998.21
2020,11,17,00,11,998.10
2020,11,17,00,12,998.07
2020,11,17,00,13,997.97
2020,11,17,00,14,998.00
2020,11,17,00,15,998.00
2020,11,17,00,16,997.87
2020,11,17,00,17,997.97
2020,11,17,00,18,997.87
2020,11,17,00,19,997.87
2020,11,17,00,20,997.83
2020,11,17,00,21,997.73
2020,11,17,00,22,997.73
2020,11,17,00,23,997.80
2020,11,17,00,24,997.80
2020,11,17,00,25,997.76
2020,11,17,00,26,997.60
2020,11,17,00,27,997.70
2020,11,17,00,28,997.63
2020,11,17,00,29,997.70
2020,11,17,00,30,997.66
2020,11,17,00,31,997.63
2020,11,17,00,32,997.66
2020,11,17,00,33,997.66
2020,11,17,00,34,997.70
2020,11,17,00,35,997.63
2020,11,17,00,36,997.60
2020,11,17,00,37,997.63
2020,11,17,00,38,997.53
2020,11,17,00,39,997.53
2020,11,17,00,40,997.56
2020,11,17,00,41,997.50
2020,11,17,00,42,997.46
2020,11,17,00,43,997.46
2020,11,17,00,44,997.50
2020,11,17,00,45,997.46
2020,11,17,00,46,997.53
2020,11,17,00,47,997.55
2020,11,17,00,48,997.46
2020,11,17,00,49,997.36
2020,11,17,00,50,997.43
2020,11,17,00,51,997.46
2020,11,17,00,52,997.36
2020,11,17,00,53,997.26
2020,11,17,00,54,997.09
2020,11,17,00,55,997.02
2020,11,17,00,56,996.92
2020,11,17,00,57,996.92
2020,11,17,00,58,996.92
2020,11,17,00,59,996.99
2020,11,17,01,00,996.95
2020,11,17,01,01,996.78
2020,11,17,01,02,996.85
2020,11,17,01,03,996.89
2020,11,17,01,04,996.85
2020,11,17,01,05,996.99
2020,11,17,01,06,996.92
2020,11,17,01,07,996.78
2020,11,17,01,08,996.68
2020,11,17,01,09,996.68
2020,11,17,01,10,996.58
2020,11,17,01,11,996.55
2020,11,17,01,12,996.58
2020,11,17,01,13,996.48
2020,11,17,01,14,996.41
2020,11,17,01,15,996.48
2020,11,17,01,16,996.55
2020,11,17,01,17,996.51
2020,11,17,01,18,996.41
2020,11,17,01,19,996.48
2020,11,17,01,20,996.41
2020,11,17,01,21,996.48
2020,11,17,01,22,996.54
2020,11,17,01,23,996.51
2020,11,17,01,24,996.48
2020,11,17,01,25,996.45
2020,11,17,01,26,996.54
2020,11,17,01,27,996.45
2020,11,17,01,28,996.45
2020,11,17,01,29,996.39
2020,11,17,01,30,996.41
2020,11,17,01,31,996.48
2020,11,17,01,32,996.41
2020,11,17,01,33,996.32
2020,11,17,01,34,996.31
2020,11,17,01,35,996.24
2020,11,17,01,36,996.07
2020,11,17,01,37,995.97
2020,11,17,01,38,996.01
2020,11,17,01,39,996.01
2020,11,17,01,40,995.97
2020,11,17,01,41,995.94
2020,11,17,01,42,995.90
2020,11,17,01,43,995.90
2020,11,17,01,44,995.84
2020,11,17,01,45,995.80
2020,11,17,01,46,995.73
2020,11,17,01,47,995.73
2020,11,17,01,48,995.90
2020,11,17,01,49,996.01
2020,11,17,01,50,995.97
2020,11,17,01,51,995.97
2020,11,17,01,52,995.97
2020,11,17,01,53,996.04
2020,11,17,01,54,995.97
2020,11,17,01,55,995.87
2020,11,17,01,56,995.84
2020,11,17,01,57,995.80
2020,11,17,01,58,995.77
2020,11,17,01,59,995.80
2020,11,17,02,00,995.80
2020,11,17,02,01,995.68
2020,11,17,02,02,995.60
2020,11,17,02,03,995.50
2020,11,17,02,04,995.43
2020,11,17,02,05,995.43
2020,11,17,02,06,995.53
2020,11,17,02,07,995.53
2020,11,17,02,08,995.50
2020,11,17,02,09,995.50
2020,11,17,02,10,995.43
2020,11,17,02,11,995.33
2020,11,17,02,12,995.29
2020,11,17,02,13,995.16
2020,11,17,02,14,995.09
2020,11,17,02,15,995.16
2020,11,17,02,16,995.07
2020,11,17,02,17,995.02
2020,11,17,02,18,995.06
2020,11,17,02,19,995.06
2020,11,17,02,20,995.02
2020,11,17,02,21,995.02
2020,11,17,02,22,995.06
2020,11,17,02,23,994.92
2020,11,17,02,24,994.85
2020,11,17,02,25,994.85
2020,11,17,02,26,994.89
2020,11,17,02,27,994.92
2020,11,17,02,28,994.92
2020,11,17,02,29,994.85
2020,11,17,02,30,994.73
2020,11,17,02,31,994.72
2020,11,17,02,32,994.68
2020,11,17,02,33,994.65
2020,11,17,02,34,994.65
2020,11,17,02,35,994.68
2020,11,17,02,36,994.62
2020,11,17,02,37,994.55
2020,11,17,02,38,994.55
2020,11,17,02,39,994.48
2020,11,17,02,40,994.45
2020,11,17,02,41,994.38
2020,11,17,02,42,994.48
2020,11,17,02,43,994.48
2020,11,17,02,44,994.48
2020,11,17,02,45,994.45
2020,11,17,02,46,994.35
2020,11,17,02,47,994.48
2020,11,17,02,48,994.41
2020,11,17,02,49,994.38
2020,11,17,02,50,994.38
2020,11,17,02,51,994.31
2020,11,17,02,52,994.24
2020,11,17,02,53,994.21
2020,11,17,02,54,994.11
2020,11,17,02,55,994.11
2020,11,17,02,56,994.11
2020,11,17,02,57,994.07
2020,11,17,02,58,993.97
2020,11,17,02,59,994.01
2020,11,17,03,00,993.97
2020,11,17,03,01,993.94
2020,11,17,03,02,993.87
2020,11,17,03,03,994.01
2020,11,17,03,04,994.07
2020,11,17,03,05,994.04
2020,11,17,03,06,994.04
2020,11,17,03,07,993.97
2020,11,17,03,08,993.94
2020,11,17,03,09,993.94
2020,11,17,03,10,993.94
2020,11,17,03,11,993.84
2020,11,17,03,12,993.84
2020,11,17,03,13,993.87
2020,11,17,03,14,993.84
2020,11,17,03,15,993.80
2020,11,17,03,16,993.70
2020,11,17,03,17,993.63
2020,11,17,03,18,993.74
2020,11,17,03,19,993.67
2020,11,17,03,20,993.63
2020,11,17,03,21,993.63
2020,11,17,03,22,993.57
2020,11,17,03,23,993.57
2020,11,17,03,24,993.60
2020,11,17,03,25,993.63
2020,11,17,03,26,993.60
2020,11,17,03,27,993.47
2020,11,17,03,28,993.40
2020,11,17,03,29,993.43
2020,11,17,03,30,993.34
2020,11,17,03,31,993.40
2020,11,17,03,32,993.40
2020,11,17,03,33,993.33
2020,11,17,03,34,993.30
2020,11,17,03,35,993.33
2020,11,17,03,36,993.30
2020,11,17,03,37,993.19
2020,11,17,03,38,993.23
2020,11,17,03,39,993.16
2020,11,17,03,40,993.16
2020,11,17,03,41,993.13
2020,11,17,03,42,993.16
2020,11,17,03,43,993.16
2020,11,17,03,44,993.13
2020,11,17,03,45,993.09
2020,11,17,03,46,993.09
2020,11,17,03,47,993.06
2020,11,17,03,48,993.06
2020,11,17,03,49,992.99
2020,11,17,03,50,992.99
2020,11,17,03,51,993.06
2020,11,17,03,52,993.09
2020,11,17,03,53,993.06
2020,11,17,03,54,993.03
2020,11,17,03,55,992.99
2020,11,17,03,56,992.96
2020,11,17,03,57,992.92
2020,11,17,03,58,992.92
2020,11,17,03,59,992.89
2020,11,17,04,00,992.86
2020,11,17,04,01,992.89
2020,11,17,04,02,992.79
2020,11,17,04,03,992.72
2020,11,17,04,04,992.69
2020,11,17,04,05,992.72
2020,11,17,04,06,992.69
2020,11,17,04,07,992.65
2020,11,17,04,08,992.58
2020,11,17,04,09,992.55
2020,11,17,04,10,992.58
2020,11,17,04,11,992.55
2020,11,17,04,12,992.55
2020,11,17,04,13,992.55
2020,11,17,04,14,992.55
2020,11,17,04,15,992.52
2020,11,17,04,16,992.45
2020,11,17,04,17,992.42
2020,11,17,04,18,992.38
2020,11,17,04,19,992.31
2020,11,17,04,20,992.25
2020,11,17,04,21,992.25
2020,11,17,04,22,992.25
2020,11,17,04,23,992.25
2020,11,17,04,24,992.21
2020,11,17,04,25,992.25
2020,11,17,04,26,992.25
2020,11,17,04,27,992.25
2020,11,17,04,28,992.21
2020,11,17,04,29,992.25
2020,11,17,04,30,992.18
2020,11,17,04,31,992.08
2020,11,17,04,32,992.01
2020,11,17,04,33,992.11
2020,11,17,04,34,992.14
2020,11,17,04,35,992.11
2020,11,17,04,36,992.11
2020,11,17,04,37,992.11
2020,11,17,04,38,992.08
2020,11,17,04,39,992.14
2020,11,17,04,40,992.11
2020,11,17,04,41,991.98
2020,11,17,04,42,991.87
2020,11,17,04,43,991.84
2020,11,17,04,44,991.81
2020,11,17,04,45,991.81
2020,11,17,04,46,991.77
2020,11,17,04,47,991.67
2020,11,17,04,48,991.60
2020,11,17,04,49,991.53
2020,11,17,04,50,991.57
2020,11,17,04,51,991.60
2020,11,17,04,52,991.60
2020,11,17,04,53,991.53
2020,11,17,04,54,991.47
2020,11,17,04,55,991.37
2020,11,17,04,56,991.33
2020,11,17,04,57,991.37
2020,11,17,04,58,991.30
2020,11,17,04,59,991.26
2020,11,17,05,00,991.16
2020,11,17,05,01,991.20
2020,11,17,05,02,991.16
2020,11,17,05,03,991.06
2020,11,17,05,04,991.03
2020,11,17,05,05,991.03
2020,11,17,05,06,990.96
2020,11,17,05,07,990.86
2020,11,17,05,08,990.77
2020,11,17,05,09,990.62
2020,11,17,05,10,990.59
2020,11,17,05,11,990.59
2020,11,17,05,12,990.62
2020,11,17,05,13,990.59
2020,11,17,05,14,990.52
2020,11,17,05,15,990.49
2020,11,17,05,16,990.38
2020,11,17,05,17,990.25
2020,11,17,05,18,990.15
2020,11,17,05,19,990.15
2020,11,17,05,20,990.15
2020,11,17,05,21,990.04
2020,11,17,05,22,990.01
2020,11,17,05,23,989.91
2020,11,17,05,24,989.82
2020,11,17,05,25,989.77
2020,11,17,05,26,989.71
2020,11,17,05,27,989.47
2020,11,17,05,28,989.44
2020,11,17,05,29,989.27
2020,11,17,05,30,989.23
2020,11,17,05,31,989.23
2020,11,17,05,32,989.27
2020,11,17,05,33,989.37
2020,11,17,05,34,989.50
2020,11,17,05,35,989.33
2020,11,17,05,36,989.40
2020,11,17,05,37,989.47
2020,11,17,05,38,989.40
2020,11,17,05,39,989.37
2020,11,17,05,40,989.44
2020,11,17,05,41,989.24
2020,11,17,05,42,989.01
2020,11,17,05,43,988.93
2020,11,17,05,44,988.96
2020,11,17,05,45,988.79
2020,11,17,05,46,988.79
2020,11,17,05,47,988.96
2020,11,17,05,48,988.89
2020,11,17,05,49,988.89
2020,11,17,05,50,988.83
2020,11,17,05,51,988.86
2020,11,17,05,52,988.86
2020,11,17,05,53,988.89
2020,11,17,05,54,988.86
2020,11,17,05,55,988.83
2020,11,17,05,56,988.67
2020,11,17,05,57,988.69
2020,11,17,05,58,988.72
2020,11,17,05,59,988.76
2020,11,17,06,00,988.72
2020,11,17,06,01,988.76
2020,11,17,06,02,988.76
2020,11,17,06,03,988.52
2020,11,17,06,04,988.49
2020,11,17,06,05,988.45
2020,11,17,06,06,988.42
2020,11,17,06,07,988.35
2020,11,17,06,08,988.42
2020,11,17,06,09,988.39
2020,11,17,06,10,988.42
2020,11,17,06,11,988.39
2020,11,17,06,12,988.45
2020,11,17,06,13,988.45
2020,11,17,06,14,988.52
2020,11,17,06,15,988.59
2020,11,17,06,16,988.52
2020,11,17,06,17,988.42
2020,11,17,06,18,988.15
2020,11,17,06,19,988.27
2020,11,17,06,20,988.05
2020,11,17,06,21,987.95
2020,11,17,06,22,987.91
2020,11,17,06,23,987.98
2020,11,17,06,24,987.91
2020,11,17,06,25,987.79
2020,11,17,06,26,987.74
2020,11,17,06,27,987.61
2020,11,17,06,28,987.54
2020,11,17,06,29,987.44
2020,11,17,06,30,987.15
2020,11,17,06,31,986.91
2020,11,17,06,32,987.00
2020,11,17,06,33,987.03
2020,11,17,06,34,986.96
2020,11,17,06,35,986.64
2020,11,17,06,36,986.62
2020,11,17,06,37,986.42
2020,11,17,06,38,986.23
2020,11,17,06,39,986.18
2020,11,17,06,40,986.29
2020,11,17,06,41,986.29
2020,11,17,06,42,986.18
2020,11,17,06,43,986.18
2020,11,17,06,44,986.03
2020,11,17,06,45,986.02
2020,11,17,06,46,986.05
2020,11,17,06,47,986.12
2020,11,17,06,48,986.18
2020,11,17,06,49,986.12
2020,11,17,06,50,986.02
2020,11,17,06,51,985.98
2020,11,17,06,52,986.05
2020,11,17,06,53,986.18
2020,11,17,06,54,986.15
2020,11,17,06,55,986.12
2020,11,17,06,56,986.29
2020,11,17,06,57,986.39
2020,11,17,06,58,986.42
2020,11,17,06,59,986.39
2020,11,17,07,00,986.46
2020,11,17,07,01,986.42
2020,11,17,07,02,986.56
2020,11,17,07,03,986.62
2020,11,17,07,04,986.73
2020,11,17,07,05,986.76
2020,11,17,07,06,986.76
2020,11,17,07,07,986.62
2020,11,17,07,08,986.50
2020,11,17,07,09,986.59
2020,11,17,07,10,986.62
2020,11,17,07,11,986.66
2020,11,17,07,12,986.53
2020,11,17,07,13,986.56
2020,11,17,07,14,986.52
2020,11,17,07,15,986.56
2020,11,17,07,16,986.62
2020,11,17,07,17,986.52
2020,11,17,07,18,986.59
2020,11,17,07,19,986.52
2020,11,17,07,20,986.52
2020,11,17,07,21,986.52
2020,11,17,07,22,986.40
2020,11,17,07,23,986.25
2020,11,17,07,24,986.22
2020,11,17,07,25,986.18
2020,11,17,07,26,986.32
2020,11,17,07,27,986.29
2020,11,17,07,28,985.98
2020,11,17,07,29,985.85
2020,11,17,07,30,985.81
2020,11,17,07,31,985.74
2020,11,17,07,32,985.78
2020,11,17,07,33,985.81
2020,11,17,07,34,985.74
2020,11,17,07,35,985.65
2020,11,17,07,36,985.68
2020,11,17,07,37,985.52
2020,11,17,07,38,985.37
2020,11,17,07,39,985.47
2020,11,17,07,40,985.44
2020,11,17,07,41,985.44
2020,11,17,07,42,985.44
2020,11,17,07,43,985.54
2020,11,17,07,44,985.51
2020,11,17,07,45,985.57
2020,11,17,07,46,985.61
2020,11,17,07,47,985.48
2020,11,17,07,48,985.57
2020,11,17,07,49,985.42
2020,11,17,07,50,985.56
2020,11,17,07,51,985.61
2020,11,17,07,52,985.61
2020,11,17,07,53,985.73
2020,11,17,07,54,985.58
2020,11,17,07,55,985.64
2020,11,17,07,56,985.64
2020,11,17,07,57,985.68
2020,11,17,07,58,985.71
2020,11,17,07,59,985.68
2020,11,17,08,00,985.68
2020,11,17,08,01,985.64
2020,11,17,08,02,985.57
2020,11,17,08,03,985.47
2020,11,17,08,04,985.54
2020,11,17,08,05,985.70
2020,11,17,08,06,985.47
2020,11,17,08,07,985.57
2020,11,17,08,08,985.51
2020,11,17,08,09,985.60
2020,11,17,08,10,985.48
2020,11,17,08,11,985.44
2020,11,17,08,12,985.41
2020,11,17,08,13,985.41
2020,11,17,08,14,985.41
2020,11,17,08,15,985.37
2020,11,17,08,16,985.18
2020,11,17,08,17,985.13
2020,11,17,08,18,985.29
2020,11,17,08,19,985.30
2020,11,17,08,20,985.30
2020,11,17,08,21,985.37
2020,11,17,08,22,985.34
2020,11,17,08,23,985.41
2020,11,17,08,24,985.34
2020,11,17,08,25,985.37
2020,11,17,08,26,985.37
2020,11,17,08,27,985.30
2020,11,17,08,28,985.24
2020,11,17,08,29,985.17
2020,11,17,08,30,985.29
2020,11,17,08,31,985.20
2020,11,17,08,32,985.27
2020,11,17,08,33,985.41
2020,11,17,08,34,985.27
2020,11,17,08,35,985.14
2020,11,17,08,36,985.10
2020,11,17,08,37,985.13
2020,11,17,08,38,985.07
2020,11,17,08,39,985.07
2020,11,17,08,40,985.03
2020,11,17,08,41,984.97
2020,11,17,08,42,985.07
2020,11,17,08,43,985.00
2020,11,17,08,44,984.84
2020,11,17,08,45,984.80
2020,11,17,08,46,984.86
2020,11,17,08,47,984.77
2020,11,17,08,48,984.69
2020,11,17,08,49,984.63
2020,11,17,08,50,984.72
2020,11,17,08,51,984.69
2020,11,17,08,52,984.76
2020,11,17,08,53,984.73
2020,11,17,08,54,984.66
2020,11,17,08,55,984.63
2020,11,17,08,56,984.75
2020,11,17,08,57,984.85
2020,11,17,08,58,984.86
2020,11,17,08,59,984.80
2020,11,17,09,00,984.73
2020,11,17,09,01,984.80
2020,11,17,09,02,984.83
2020,11,17,09,03,984.80
2020,11,17,09,04,984.80
2020,11,17,09,05,984.90
2020,11,17,09,06,984.86
2020,11,17,09,07,984.77
2020,11,17,09,08,984.80
2020,11,17,09,09,984.73
2020,11,17,09,10,984.76
2020,11,17,09,11,984.69
2020,11,17,09,12,984.76
2020,11,17,09,13,984.76
2020,11,17,09,14,984.69
2020,11,17,09,15,984.73
2020,11,17,09,16,984.63
2020,11,17,09,17,984.53
2020,11,17,09,18,984.49
2020,11,17,09,19,984.59
2020,11,17,09,20,984.56
2020,11,17,09,21,984.53
2020,11,17,09,22,984.56
2020,11,17,09,23,984.56
2020,11,17,09,24,984.59
2020,11,17,09,25,984.66
2020,11,17,09,26,984.89
2020,11,17,09,27,984.86
2020,11,17,09,28,984.77
2020,11,17,09,29,984.66
2020,11,17,09,30,984.69
2020,11,17,09,31,984.63
2020,11,17,09,32,984.72
2020,11,17,09,33,984.64
2020,11,17,09,34,984.66
2020,11,17,09,35,984.66
2020,11,17,09,36,984.76
2020,11,17,09,37,984.66
2020,11,17,09,38,984.73
2020,11,17,09,39,984.64
2020,11,17,09,40,984.53
2020,11,17,09,41,984.56
2020,11,17,09,42,984.56
2020,11,17,09,43,984.59
2020,11,17,09,44,984.72
2020,11,17,09,45,984.76
2020,11,17,09,46,984.76
2020,11,17,09,47,984.80
2020,11,17,09,48,984.76
2020,11,17,09,49,984.86
2020,11,17,09,50,984.93
2020,11,17,09,51,985.03
2020,11,17,09,52,984.93
2020,11,17,09,53,985.03
2020,11,17,09,54,985.10
2020,11,17,09,55,985.20
2020,11,17,09,56,985.24
2020,11,17,09,57,985.11
2020,11,17,09,58,985.26
2020,11,17,09,59,985.30
2020,11,17,10,00,985.24
2020,11,17,10,01,985.04
2020,11,17,10,02,985.16
2020,11,17,10,03,985.04
2020,11,17,10,04,985.07
2020,11,17,10,05,985.17
2020,11,17,10,06,985.13
2020,11,17,10,07,984.94
2020,11,17,10,08,984.84
2020,11,17,10,09,984.90
2020,11,17,10,10,984.80
2020,11,17,10,11,984.93
2020,11,17,10,12,984.86
2020,11,17,10,13,984.80
2020,11,17,10,14,984.80
2020,11,17,10,15,984.86
2020,11,17,10,16,984.80
2020,11,17,10,17,984.73
2020,11,17,10,18,984.69
2020,11,17,10,19,984.69
2020,11,17,10,20,984.73
2020,11,17,10,21,984.80
2020,11,17,10,22,984.80
2020,11,17,10,23,984.70
2020,11,17,10,24,984.57
2020,11,17,10,25,984.56
2020,11,17,10,26,984.56
2020,11,17,10,27,984.79
2020,11,17,10,28,984.80
2020,11,17,10,29,984.83
2020,11,17,10,30,984.83
2020,11,17,10,31,984.83
2020,11,17,10,32,984.59
2020,11,17,10,33,984.56
2020,11,17,10,34,984.63
2020,11,17,10,35,984.69
2020,11,17,10,36,984.57
2020,11,17,10,37,984.66
2020,11,17,10,38,984.69
2020,11,17,10,39,984.73
2020,11,17,10,40,984.66
2020,11,17,10,41,984.73
2020,11,17,10,42,984.53
2020,11,17,10,43,984.49
2020,11,17,10,44,984.66
2020,11,17,10,45,984.59
2020,11,17,10,46,984.79
2020,11,17,10,47,984.76
2020,11,17,10,48,984.85
2020,11,17,10,49,984.77
2020,11,17,10,50,984.86
2020,11,17,10,51,984.86
2020,11,17,10,52,984.83
2020,11,17,10,53,984.86
2020,11,17,10,54,984.99
2020,11,17,10,55,985.00
2020,11,17,10,56,984.97
2020,11,17,10,57,985.17
2020,11,17,10,58,985.13
2020,11,17,10,59,985.27
2020,11,17,11,00,985.30
2020,11,17,11,01,985.41
2020,11,17,11,02,985.51
2020,11,17,11,03,985.67
2020,11,17,11,04,985.53
2020,11,17,11,05,985.63
2020,11,17,11,06,985.77
2020,11,17,11,07,985.81
2020,11,17,11,08,985.78
2020,11,17,11,09,985.74
2020,11,17,11,10,985.71
2020,11,17,11,11,985.74
2020,11,17,11,12,985.62
2020,11,17,11,13,985.48
2020,11,17,11,14,985.51
2020,11,17,11,15,985.44
2020,11,17,11,16,985.61
2020,11,17,11,17,985.51
2020,11,17,11,18,985.54
2020,11,17,11,19,985.57
2020,11,17,11,20,985.57
2020,11,17,11,21,985.64
2020,11,17,11,22,985.74
2020,11,17,11,23,985.48
2020,11,17,11,24,985.51
2020,11,17,11,25,985.57
2020,11,17,11,26,985.70
2020,11,17,11,27,985.68
2020,11,17,11,28,985.71
2020,11,17,11,29,985.84
2020,11,17,11,30,985.88
2020,11,17,11,31,985.98
2020,11,17,11,32,985.98
2020,11,17,11,33,985.95
2020,11,17,11,34,985.98
2020,11,17,11,35,986.08
2020,11,17,11,36,986.15
2020,11,17,11,37,986.22
2020,11,17,11,38,986.25
2020,11,17,11,39,986.22
2020,11,17,11,40,986.29
2020,11,17,11,41,986.39
2020,11,17,11,42,986.49
2020,11,17,11,43,986.61
2020,11,17,11,44,986.59
2020,11,17,11,45,986.62
2020,11,17,11,46,986.62
2020,11,17,11,47,986.72
2020,11,17,11,48,986.85
2020,11,17,11,49,986.96
2020,11,17,11,50,987.00
2020,11,17,11,51,987.00
2020,11,17,11,52,987.00
2020,11,17,11,53,986.96
2020,11,17,11,54,987.03
2020,11,17,11,55,987.13
2020,11,17,11,56,987.01
2020,11,17,11,57,986.69
2020,11,17,11,58,986.83
2020,11,17,11,59,986.79
2020,11,17,12,00,987.03
2020,11,17,12,01,987.06
2020,11,17,12,02,987.13
2020,11,17,12,03,987.13
2020,11,17,12,04,987.17
2020,11,17,12,05,987.30
2020,11,17,12,06,987.27
2020,11,17,12,07,987.27
2020,11,17,12,08,987.16
2020,11,17,12,09,987.03
2020,11,17,12,10,987.30
2020,11,17,12,11,987.30
2020,11,17,12,12,987.23
2020,11,17,12,13,987.14
2020,11,17,12,14,987.13
2020,11,17,12,15,987.13
2020,11,17,12,16,987.17
2020,11,17,12,17,987.17
2020,11,17,12,18,987.23
2020,11,17,12,19,987.30
2020,11,17,12,20,987.27
2020,11,17,12,21,987.30
2020,11,17,12,22,987.37
2020,11,17,12,23,987.44
2020,11,17,12,24,987.47
2020,11,17,12,25,987.54
2020,11,17,12,26,987.61
2020,11,17,12,27,987.71
2020,11,17,12,28,987.71
2020,11,17,12,29,987.78
2020,11,17,12,30,987.78
2020,11,17,12,31,987.78
2020,11,17,12,32,987.88
2020,11,17,12,33,987.88
2020,11,17,12,34,987.84
2020,11,17,12,35,987.88
2020,11,17,12,36,987.88
2020,11,17,12,37,987.88
2020,11,17,12,38,987.88
2020,11,17,12,39,987.84
2020,11,17,12,40,987.78
2020,11,17,12,41,987.84
2020,11,17,12,42,987.91
2020,11,17,12,43,987.95
2020,11,17,12,44,988.01
2020,11,17,12,45,987.98
2020,11,17,12,46,988.08
2020,11,17,12,47,988.11
2020,11,17,12,48,988.15
2020,11,17,12,49,988.18
2020,11,17,12,50,988.15
2020,11,17,12,51,988.18
2020,11,17,12,52,988.22
2020,11,17,12,53,988.25
2020,11,17,12,54,988.22
2020,11,17,12,55,988.25
2020,11,17,12,56,988.25
2020,11,17,12,57,988.28
2020,11,17,12,58,988.28
2020,11,17,12,59,988.35
2020,11,17,13,00,988.35
2020,11,17,13,01,988.39
2020,11,17,13,02,988.39
2020,11,17,13,03,988.42
2020,11,17,13,04,988.49
2020,11,17,13,05,988.52
2020,11,17,13,06,988.59
2020,11,17,13,07,988.66
2020,11,17,13,08,988.66
2020,11,17,13,09,988.76
2020,11,17,13,10,988.76
2020,11,17,13,11,988.76
2020,11,17,13,12,988.79
2020,11,17,13,13,988.79
2020,11,17,13,14,988.79
2020,11,17,13,15,988.83
2020,11,17,13,16,988.86
2020,11,17,13,17,988.89
2020,11,17,13,18,988.93
2020,11,17,13,19,988.96
2020,11,17,13,20,989.00
2020,11,17,13,21,989.06
2020,11,17,13,22,989.06
2020,11,17,13,23,989.03
2020,11,17,13,24,989.00
2020,11,17,13,25,989.00
2020,11,17,13,26,989.03
2020,11,17,13,27,989.03
2020,11,17,13,28,989.10
2020,11,17,13,29,989.13
2020,11,17,13,30,989.10
2020,11,17,13,31,989.10
2020,11,17,13,32,989.16
2020,11,17,13,33,989.16
2020,11,17,13,34,989.20
2020,11,17,13,35,989.20
2020,11,17,13,36,989.23
2020,11,17,13,37,989.23
2020,11,17,13,38,989.27
2020,11,17,13,39,989.30
2020,11,17,13,40,989.33
2020,11,17,13,41,989.37
2020,11,17,13,42,989.37
2020,11,17,13,43,989.44
2020,11,17,13,44,989.50
2020,11,17,13,45,989.50
2020,11,17,13,46,989.47
2020,11,17,13,47,989.40
2020,11,17,13,48,989.47
2020,11,17,13,49,989.50
2020,11,17,13,50,989.57
2020,11,17,13,51,989.57
2020,11,17,13,52,989.60
2020,11,17,13,53,989.64
2020,11,17,13,54,989.74
2020,11,17,13,55,989.71
2020,11,17,13,56,989.77
2020,11,17,13,57,989.74
2020,11,17,13,58,989.77
2020,11,17,13,59,989.74
2020,11,17,14,00,989.81
2020,11,17,14,01,989.84
2020,11,17,14,02,989.81
2020,11,17,14,03,989.77
2020,11,17,14,04,989.81
2020,11,17,14,05,989.84
2020,11,17,14,06,989.81
2020,11,17,14,07,989.88
2020,11,17,14,08,989.81
2020,11,17,14,09,989.81
2020,11,17,14,10,989.88
2020,11,17,14,11,989.94
2020,11,17,14,12,989.88
2020,11,17,14,13,989.91
2020,11,17,14,14,989.91
2020,11,17,14,15,989.98
2020,11,17,14,16,989.94
2020,11,17,14,17,990.01
2020,11,17,14,18,990.04
2020,11,17,14,19,990.08
2020,11,17,14,20,990.11
2020,11,17,14,21,990.15
2020,11,17,14,22,990.15
2020,11,17,14,23,990.18
2020,11,17,14,24,990.18
2020,11,17,14,25,990.15
2020,11,17,14,26,990.15
2020,11,17,14,27,990.18
2020,11,17,14,28,990.25
2020,11,17,14,29,990.21
2020,11,17,14,30,990.21
2020,11,17,14,31,990.25
2020,11,17,14,32,990.32
2020,11,17,14,33,990.32
2020,11,17,14,34,990.35
2020,11,17,14,35,990.35
2020,11,17,14,36,990.35
2020,11,17,14,37,990.35
2020,11,17,14,38,990.38
2020,11,17,14,39,990.42
2020,11,17,14,40,990.38
2020,11,17,14,41,990.42
2020,11,17,14,42,990.42
2020,11,17,14,43,990.45
2020,11,17,14,44,990.42
2020,11,17,14,45,990.52
2020,11,17,14,46,990.52
2020,11,17,14,47,990.62
2020,11,17,14,48,990.52
2020,11,17,14,49,990.59
2020,11,17,14,50,990.55
2020,11,17,14,51,990.52
2020,11,17,14,52,990.59
2020,11,17,14,53,990.62
2020,11,17,14,54,990.59
2020,11,17,14,55,990.62
2020,11,17,14,56,990.62
2020,11,17,14,57,990.65
2020,11,17,14,58,990.62
2020,11,17,14,59,990.62
2020,11,17,15,00,990.72
2020,11,17,15,01,990.72
2020,11,17,15,02,990.76
2020,11,17,15,03,990.82
2020,11,17,15,04,990.82
2020,11,17,15,05,990.89
2020,11,17,15,06,990.86
2020,11,17,15,07,990.86
2020,11,17,15,08,990.86
2020,11,17,15,09,990.82
2020,11,17,15,10,990.89
2020,11,17,15,11,990.93
2020,11,17,15,12,990.82
2020,11,17,15,13,990.89
2020,11,17,15,14,990.86
2020,11,17,15,15,990.96
2020,11,17,15,16,990.86
2020,11,17,15,17,990.86
2020,11,17,15,18,990.89
2020,11,17,15,19,990.93
2020,11,17,15,20,990.82
2020,11,17,15,21,990.79
2020,11,17,15,22,990.86
2020,11,17,15,23,990.86
2020,11,17,15,24,990.86
2020,11,17,15,25,990.93
2020,11,17,15,26,990.99
2020,11,17,15,27,991.03
2020,11,17,15,28,990.93
2020,11,17,15,29,990.96
2020,11,17,15,30,990.99
2020,11,17,15,31,990.96
2020,11,17,15,32,990.96
2020,11,17,15,33,990.93
2020,11,17,15,34,990.93
2020,11,17,15,35,990.96
2020,11,17,15,36,991.03
2020,11,17,15,37,990.93
2020,11,17,15,38,990.89
2020,11,17,15,39,991.03
2020,11,17,15,40,990.99
2020,11,17,15,41,991.03
2020,11,17,15,42,990.99
2020,11,17,15,43,991.03
2020,11,17,15,44,991.09
2020,11,17,15,45,991.09
2020,11,17,15,46,991.06
2020,11,17,15,47,991.23
2020,11,17,15,48,991.26
2020,11,17,15,49,991.33
2020,11,17,15,50,991.37
2020,11,17,15,51,991.40
2020,11,17,15,52,991.50
2020,11,17,15,53,991.50
2020,11,17,15,54,991.59
2020,11,17,15,55,991.60
2020,11,17,15,56,991.57
2020,11,17,15,57,991.50
2020,11,17,15,58,991.53
2020,11,17,15,59,991.57
2020,11,17,16,00,991.50
2020,11,17,16,01,991.57
2020,11,17,16,02,991.47
2020,11,17,16,03,991.53
2020,11,17,16,04,991.60
2020,11,17,16,05,991.64
2020,11,17,16,06,991.60
2020,11,17,16,07,991.60
2020,11,17,16,08,991.70
2020,11,17,16,09,991.67
2020,11,17,16,10,991.70
2020,11,17,16,11,991.70
2020,11,17,16,12,991.77
2020,11,17,16,13,991.70
2020,11,17,16,14,991.77
2020,11,17,16,15,991.81
2020,11,17,16,16,991.77
2020,11,17,16,17,991.77
2020,11,17,16,18,991.84
2020,11,17,16,19,991.87
2020,11,17,16,20,991.87
2020,11,17,16,21,991.91
2020,11,17,16,22,991.91
2020,11,17,16,23,991.84
2020,11,17,16,24,991.77
2020,11,17,16,25,991.74
2020,11,17,16,26,991.77
2020,11,17,16,27,991.64
2020,11,17,16,28,991.67
2020,11,17,16,29,991.67
2020,11,17,16,30,991.74
2020,11,17,16,31,991.87
2020,11,17,16,32,991.81
2020,11,17,16,33,991.87
2020,11,17,16,34,991.87
2020,11,17,16,35,991.87
2020,11,17,16,36,991.87